Flag for Switzerland Weather past 2 weeks in Kriens, Lucerne, Switzerland

Now
31 °F

Chilly.


Feels Like: 31 °F
Forecast: 38 / 59 °F
Wind: 2 mph from Northwest

Location: Giswil


UV Index: 3 (Moderate)

Visibility: N/A


Pressure: 30.33 "Hg

Humidity: 88%

Dew point: 27 °F

Location of KriensLocation

Historic Weather in Kriens

°F

Kriens temperature yesterday

Maximum temperature yesterday: 56 °F (at 4:00 PM)
Minimum temperature yesterday: 31 °F (at 7:00 AM)
Average temperature yesterday: 44 °F

Past Weeks' High & Low Weather Summary

 TemperatureHumidityPressure
High69 °F (Apr 2, 5:00 PM)100% (Apr 7, 4:00 AM)30.36 "Hg (Apr 7, 4:00 AM)
Low30 °F (Apr 17, 2:00 AM)30% (Apr 2, 5:00 PM)29.67 "Hg (Apr 3, 5:00 PM)
Average51 °F72%30.06 "Hg
* Reported Apr 2 2:00 AM — Apr 17 2:00 AM, Kriens, Weather by CustomWeather, © 2014

Note: Actual official high and low records may vary slightly from our data, if they occured in-between our weather recording intervals... More about our weather records

Advertising

Historic Weather Conditions — Data for Previous 24 hours

 ConditionsComfort  
Time TempWeatherWind HumidityBarometerVisibility
2:00 AM
Apr 17
30 °FChilly.2 mph88%30.35 "HgN/A
1:00 AM33 °FChilly.1 mph84%30.35 "HgN/A
12:00 AM35 °FChilly.2 mph78%30.35 "HgN/A
11:00 PM
Apr 16
36 °FChilly.2 mph79%30.35 "HgN/A
10:00 PM39 °FChilly.2 mph71%30.34 "HgN/A
9:00 PM49 °FCool.3 mph45%30.30 "HgN/A
8:00 PM51 °FCool.8 mph44%30.27 "HgN/A
7:00 PM53 °FCool.8 mph43%30.25 "HgN/A
6:00 PM55 °FCool.8 mph42%30.24 "HgN/A
5:00 PM55 °FCool.10 mph42%30.24 "HgN/A
4:00 PM56 °FRefreshingly cool.9 mph41%30.24 "HgN/A
3:00 PM55 °FCool.9 mph39%30.24 "HgN/A
2:00 PM54 °FCool.10 mph37%30.25 "HgN/A
1:00 PM53 °FCool.8 mph38%30.26 "HgN/A
12:00 PM50 °FCool.6 mph43%30.27 "HgN/A
10:00 AM44 °FQuite cool.2 mph54%30.32 "HgN/A
9:00 AM40 °FQuite cool.No wind66%30.33 "HgN/A
8:00 AM33 °FChilly.1 mph86%30.35 "HgN/A
7:00 AM31 °FChilly.2 mph88%30.35 "HgN/A
6:00 AM33 °FChilly.1 mph88%30.34 "HgN/A
5:00 AM34 °FChilly.2 mph81%30.34 "HgN/A
4:00 AM32 °FChilly.3 mph83%30.36 "HgN/A
3:00 AM35 °FChilly.3 mph74%30.35 "HgN/A
Weather by CustomWeather, © 2014

See weather overview